Back to catalog

CZ-6A DEB

AliveSSO
NORAD 54964·DEBRIS·🇨🇳 China

Launched Nov 11, 2022 from Taiyuan Satellite Launch Center

Loading…

Next Passes (next 24 hours)

TLE

FreshSource: Space-Track

Epoch: Sep 14, 2026, 10:57 UTC

1 54964U 22151TD  26257.45645568 -.00000075  00000-0 -18941-4 0  9995
2 54964  98.8776 252.5900 0061139 114.0851 246.6730 14.07082571196940

Track CZ-6A DEB in real time with AllMySat

Download on the App Store